TimeICT,TemperatureF,Dew PointF,Humidity,Sea Level PressureIn,VisibilityMPH,Wind Direction,Wind SpeedMPH,Gust SpeedMPH,PrecipitationIn,Events,Conditions,WindDirDegrees,DateUTC
12:00 AM,82.4,75.2,79,29.86,5.0,West,16.1,-,N/A,,Mostly Cloudy,260,2011-10-01 17:00:00
12:30 AM,82.4,73.4,74,29.86,5.0,West,17.3,-,N/A,,Mostly Cloudy,270,2011-10-01 17:30:00
1:00 AM,82,77,79,29.81,6,West,15.0,,,,Scattered Clouds,270,2011-10-01 18:00:00
1:00 AM,82.4,75.2,79,29.83,5.0,West,16.1,-,N/A,,Mostly Cloudy,270,2011-10-01 18:00:00
1:30 AM,82.4,75.2,79,29.80,5.0,West,18.4,-,N/A,,Mostly Cloudy,270,2011-10-01 18:30:00
2:00 AM,82.4,75.2,79,29.80,4.3,West,15.0,-,N/A,Rain,Light Rain,280,2011-10-01 19:00:00
2:30 AM,80.6,75.2,84,29.80,4.3,West,16.1,-,N/A,,Mostly Cloudy,260,2011-10-01 19:30:00
3:00 AM,80.6,73.4,79,29.80,5.0,West,17.3,-,N/A,,Mostly Cloudy,270,2011-10-01 20:00:00
3:30 AM,80.6,73.4,79,29.80,5.0,West,17.3,-,N/A,,Mostly Cloudy,270,2011-10-01 20:30:00
4:00 AM,80.6,75.2,84,29.80,5.0,West,16.1,-,N/A,,Mostly Cloudy,270,2011-10-01 21:00:00
4:30 AM,80.6,75.2,84,29.80,5.0,West,16.1,-,N/A,,Mostly Cloudy,270,2011-10-01 21:30:00
5:00 AM,80.6,73.4,79,29.80,5.0,West,15.0,-,N/A,,Mostly Cloudy,270,2011-10-01 22:00:00
5:30 AM,80.6,75.2,84,29.80,5.0,West,13.8,-,N/A,,Mostly Cloudy,270,2011-10-01 22:30:00
6:00 AM,80.6,75.2,84,29.80,5.0,West,11.5,-,N/A,,Mostly Cloudy,260,2011-10-01 23:00:00
6:30 AM,78.8,73.4,83,29.80,4.3,West,12.7,-,N/A,,Mostly Cloudy,280,2011-10-01 23:30:00
7:00 AM,82,76,78,29.78,6,West,12.7,,,Rain,Light Rain,280,2011-10-02 00:00:00
7:00 AM,80.6,75.2,84,29.83,4.3,West,9.2,-,N/A,,Mostly Cloudy,280,2011-10-02 00:00:00
7:30 AM,80.6,75.2,84,29.83,4.3,West,12.7,-,N/A,,Mostly Cloudy,260,2011-10-02 00:30:00
8:00 AM,82.4,75.2,79,29.83,4.3,West,11.5,-,N/A,,Mostly Cloudy,260,2011-10-02 01:00:00
8:30 AM,82.4,75.2,79,29.86,-9999.0,North,-9999.0,-,N/A,,Mostly Cloudy,0,2011-10-02 01:30:00
9:00 AM,84.2,75.2,74,29.86,4.3,West,17.3,-,N/A,,Mostly Cloudy,270,2011-10-02 02:00:00
9:30 AM,84.2,75.2,74,29.86,5.0,West,11.5,-,N/A,,Mostly Cloudy,270,2011-10-02 02:30:00
10:00 AM,86.0,75.2,70,29.86,5.0,West,13.8,-,N/A,,Mostly Cloudy,270,2011-10-02 03:00:00
10:30 AM,86.0,75.2,70,29.86,5.0,West,17.3,-,N/A,,Mostly Cloudy,270,2011-10-02 03:30:00
11:00 AM,86.0,75.2,70,29.86,5.0,West,19.6,-,N/A,,Mostly Cloudy,270,2011-10-02 04:00:00
11:30 AM,86.0,75.2,70,29.86,5.0,West,19.6,-,N/A,,Mostly Cloudy,260,2011-10-02 04:30:00
12:00 PM,84.2,75.2,74,29.86,5.0,West,18.4,-,N/A,,Mostly Cloudy,270,2011-10-02 05:00:00
12:30 PM,86.0,75.2,70,29.83,5.0,West,21.9,-,N/A,,Mostly Cloudy,270,2011-10-02 05:30:00
1:00 PM,87,77,66,29.81,6,West,13.8,,,,Scattered Clouds,270,2011-10-02 06:00:00
1:00 PM,87.8,75.2,66,29.83,5.0,West,20.7,-,N/A,,Mostly Cloudy,270,2011-10-02 06:00:00
1:30 PM,86.0,75.2,70,29.80,5.0,West,20.7,-,N/A,,Mostly Cloudy,270,2011-10-02 06:30:00
2:00 PM,86.0,75.2,70,29.80,5.0,West,18.4,-,N/A,,Mostly Cloudy,270,2011-10-02 07:00:00
2:30 PM,86.0,75.2,70,29.77,5.6,West,19.6,-,N/A,,Mostly Cloudy,270,2011-10-02 07:30:00
3:00 PM,86.0,75.2,70,29.77,5.6,West,16.1,-,N/A,,Mostly Cloudy,270,2011-10-02 08:00:00
3:30 PM,84.2,75.2,74,29.77,5.6,West,17.3,-,N/A,,Mostly Cloudy,270,2011-10-02 08:30:00
4:00 PM,84.2,73.4,70,29.77,5.6,West,17.3,-,N/A,,Mostly Cloudy,270,2011-10-02 09:00:00
4:30 PM,84.2,75.2,74,29.77,5.6,West,17.3,-,N/A,,Mostly Cloudy,270,2011-10-02 09:30:00
5:00 PM,84.2,73.4,70,29.77,5.6,West,20.7,-,N/A,,Mostly Cloudy,280,2011-10-02 10:00:00
5:30 PM,82.4,75.2,79,29.77,5.0,West,17.3,-,N/A,,Mostly Cloudy,270,2011-10-02 10:30:00
6:00 PM,82.4,73.4,74,29.77,5.0,WSW,23.0,-,N/A,,Mostly Cloudy,240,2011-10-02 11:00:00
7:00 PM,82,77,81,29.75,6,West,11.5,,,Rain,Light Rain,270,2011-10-02 12:00:00
7:00 PM,82.4,75.2,79,29.80,4.3,WSW,23.0,-,N/A,,Mostly Cloudy,240,2011-10-02 12:00:00
7:30 PM,82.4,75.2,79,29.80,4.3,West,18.4,-,N/A,,Mostly Cloudy,270,2011-10-02 12:30:00
8:00 PM,82.4,75.2,79,29.83,4.3,West,19.6,-,N/A,,Mostly Cloudy,270,2011-10-02 13:00:00
8:30 PM,82.4,75.2,79,29.83,5.0,West,17.3,-,N/A,,Mostly Cloudy,270,2011-10-02 13:30:00
9:00 PM,80.6,75.2,84,29.86,5.0,West,16.1,-,N/A,,Mostly Cloudy,280,2011-10-02 14:00:00
9:30 PM,77.0,71.6,83,29.89,3.7,WNW,15.0,-,N/A,Rain,Rain,300,2011-10-02 14:30:00
10:00 PM,77.0,71.6,83,29.89,5.0,NNW,13.8,-,N/A,,Mostly Cloudy,330,2011-10-02 15:00:00
10:30 PM,77.0,71.6,83,29.89,5.0,NW,5.8,-,N/A,,Mostly Cloudy,320,2011-10-02 15:30:00
11:30 PM,77.0,71.6,83,29.89,5.0,WNW,6.9,-,N/A,,Mostly Cloudy,300,2011-10-02 16:30:00